When you browse on this site, cookies collect data to enhance your experience and personalize the content and advertising you see.
Visit our Privacy Policy to learn more. By continuing to use the site, you agree to this use of cookies and data.

Météo par heure à Dangriga

Ce jour, 4 Août, Mardi

Heure Température Précipitation Vent Pression Humidité
00:00 +27°C° 0 mm 2 m/s 760 mmHg 97%
01:00 +27°C° 0.3 mm 2 m/s 759 mmHg 97%
02:00 +26°C° 0.3 mm 2 m/s 759 mmHg 98%
03:00 +26°C° 0.3 mm 2 m/s 759 mmHg 98%
04:00 +26°C° 0.1 mm 1 m/s 759 mmHg 98%
05:00 +26°C° 0.1 mm 1 m/s 759 mmHg 98%
06:00 +26°C° 0.1 mm 1 m/s 759 mmHg 98%
07:00 +28°C° 0 mm 1 m/s 760 mmHg 89%
08:00 +30°C° 0 mm 1 m/s 760 mmHg 81%
09:00 +32°C° 0 mm 1 m/s 761 mmHg 72%
10:00 +34°C° 0 mm 2 m/s 760 mmHg 67%
11:00 +35°C° 0 mm 2 m/s 760 mmHg 61%
12:00 +36°C° 0 mm 3 m/s 760 mmHg 56%
13:00 +36°C° 0.1 mm 3 m/s 759 mmHg 60%
14:00 +35°C° 0.1 mm 4 m/s 759 mmHg 65%
15:00 +34°C° 0.1 mm 4 m/s 758 mmHg 69%
16:00 +33°C° 0 mm 4 m/s 758 mmHg 74%
17:00 +32°C° 0 mm 4 m/s 758 mmHg 78%
18:00 +29°C° 0 mm 3 m/s 758 mmHg 83%
19:00 +28°C° 0.5 mm 3 m/s 759 mmHg 87%
20:00 +28°C° 0.5 mm 3 m/s 759 mmHg 91%
21:00 +27°C° 0.5 mm 3 m/s 760 mmHg 94%
22:00 +27°C° 0.8 mm 3 m/s 760 mmHg 94%
23:00 +27°C° 0.8 mm 2 m/s 759 mmHg 94%

Demain, 5 Août, Mercredi

Heure Température Précipitation Vent Pression Humidité
00:00 +27°C° 0.8 mm 2 m/s 759 mmHg 94%
01:00 +27°C° 0.2 mm 2 m/s 759 mmHg 94%
02:00 +27°C° 0.2 mm 2 m/s 758 mmHg 93%
03:00 +27°C° 0.2 mm 1 m/s 758 mmHg 92%
04:00 +27°C° 0.7 mm 1 m/s 758 mmHg 92%
05:00 +27°C° 0.7 mm 1 m/s 758 mmHg 92%
06:00 +27°C° 0.7 mm 1 m/s 758 mmHg 92%
07:00 +29°C° 0.3 mm 1 m/s 759 mmHg 82%
08:00 +31°C° 0.3 mm 2 m/s 759 mmHg 73%
09:00 +34°C° 0.3 mm 2 m/s 759 mmHg 63%
10:00 +35°C° 0.2 mm 2 m/s 759 mmHg 59%
11:00 +36°C° 0.2 mm 3 m/s 759 mmHg 55%
12:00 +37°C° 0.2 mm 3 m/s 759 mmHg 51%
13:00 +36°C° 0 mm 3 m/s 758 mmHg 53%
14:00 +35°C° 0 mm 4 m/s 758 mmHg 55%
15:00 +35°C° 0 mm 4 m/s 757 mmHg 57%
16:00 +33°C° 0 mm 4 m/s 757 mmHg 65%
17:00 +32°C° 0 mm 4 m/s 757 mmHg 73%
18:00 +30°C° 0 mm 4 m/s 757 mmHg 81%
19:00 +29°C° 0.4 mm 4 m/s 758 mmHg 86%
20:00 +28°C° 0.4 mm 4 m/s 758 mmHg 91%
21:00 +27°C° 0.4 mm 4 m/s 759 mmHg 96%
22:00 +27°C° 0.7 mm 4 m/s 759 mmHg 97%
23:00 +27°C° 0.7 mm 4 m/s 758 mmHg 98%

Après-demain, 6 Août, Jeudi

Heure Température Précipitation Vent Pression Humidité
00:00 +27°C° 0.7 mm 4 m/s 758 mmHg 98%
01:00 +27°C° 0.7 mm 4 m/s 758 mmHg 98%
02:00 +27°C° 0.7 mm 4 m/s 757 mmHg 98%
03:00 +26°C° 0.7 mm 3 m/s 757 mmHg 98%
04:00 +27°C° 2.5 mm 4 m/s 757 mmHg 98%
05:00 +27°C° 2.5 mm 4 m/s 757 mmHg 98%
06:00 +27°C° 2.5 mm 4 m/s 758 mmHg 98%
07:00 +28°C° 1.8 mm 4 m/s 758 mmHg 97%
08:00 +28°C° 1.8 mm 5 m/s 758 mmHg 95%
09:00 +29°C° 1.8 mm 5 m/s 759 mmHg 94%
10:00 +30°C° 1.7 mm 5 m/s 759 mmHg 91%
11:00 +30°C° 1.7 mm 5 m/s 758 mmHg 87%
12:00 +32°C° 1.7 mm 5 m/s 758 mmHg 84%
13:00 +30°C° 1.3 mm 5 m/s 758 mmHg 87%
14:00 +30°C° 1.3 mm 5 m/s 757 mmHg 89%
15:00 +30°C° 1.3 mm 6 m/s 757 mmHg 91%
16:00 +29°C° 1.4 mm 6 m/s 757 mmHg 92%
17:00 +29°C° 1.4 mm 6 m/s 757 mmHg 93%
18:00 +28°C° 1.4 mm 7 m/s 757 mmHg 94%
19:00 +28°C° 0.9 mm 7 m/s 757 mmHg 95%
20:00 +27°C° 0.9 mm 7 m/s 758 mmHg 96%
21:00 +27°C° 0.9 mm 6 m/s 759 mmHg 98%
22:00 +27°C° 0.7 mm 7 m/s 759 mmHg 98%
23:00 +27°C° 0.7 mm 7 m/s 759 mmHg 98%

7 Août, Vendredi

Heure Température Précipitation Vent Pression Humidité
00:00 +27°C° 0.7 mm 7 m/s 759 mmHg 98%
01:00 +27°C° 0.3 mm 7 m/s 758 mmHg 98%
02:00 +26°C° 0.3 mm 6 m/s 758 mmHg 98%
03:00 +26°C° 0.3 mm 6 m/s 758 mmHg 98%
04:00 +26°C° 0.1 mm 6 m/s 758 mmHg 98%
05:00 +26°C° 0.1 mm 6 m/s 758 mmHg 98%
06:00 +26°C° 0.1 mm 6 m/s 758 mmHg 98%
07:00 +27°C° 0.5 mm 6 m/s 759 mmHg 94%
08:00 +28°C° 0.5 mm 6 m/s 759 mmHg 91%
09:00 +30°C° 0.5 mm 6 m/s 760 mmHg 87%
10:00 +30°C° 0.8 mm 6 m/s 760 mmHg 87%
11:00 +30°C° 0.8 mm 6 m/s 760 mmHg 86%
12:00 +30°C° 0.8 mm 5 m/s 760 mmHg 85%
13:00 +30°C° 0.6 mm 5 m/s 759 mmHg 86%
14:00 +30°C° 0.6 mm 5 m/s 759 mmHg 87%
15:00 +29°C° 0.6 mm 5 m/s 759 mmHg 87%
16:00 +29°C° 0.4 mm 5 m/s 759 mmHg 90%
17:00 +28°C° 0.4 mm 5 m/s 759 mmHg 93%
18:00 +27°C° 0.4 mm 5 m/s 759 mmHg 95%
19:00 +27°C° 0.4 mm 5 m/s 759 mmHg 96%
20:00 +26°C° 0.4 mm 5 m/s 760 mmHg 97%
21:00 +26°C° 0.4 mm 5 m/s 761 mmHg 98%
22:00 +26°C° 0.7 mm 5 m/s 761 mmHg 98%
23:00 +26°C° 0.7 mm 5 m/s 760 mmHg 98%

8 Août, Samedi

Heure Température Précipitation Vent Pression Humidité
00:00 +26°C° 0.7 mm 5 m/s 760 mmHg 98%
01:00 +26°C° 0.5 mm 5 m/s 760 mmHg 98%
02:00 +26°C° 0.5 mm 4 m/s 759 mmHg 98%
03:00 +26°C° 0.5 mm 4 m/s 759 mmHg 98%
04:00 +26°C° 0.5 mm 4 m/s 759 mmHg 98%
05:00 +26°C° 0.5 mm 4 m/s 760 mmHg 98%
06:00 +26°C° 0.5 mm 4 m/s 760 mmHg 98%
07:00 +27°C° 0.8 mm 4 m/s 760 mmHg 97%
08:00 +28°C° 0.8 mm 4 m/s 761 mmHg 95%
09:00 +28°C° 0.8 mm 4 m/s 761 mmHg 94%
10:00 +29°C° 1.5 mm 4 m/s 761 mmHg 93%
11:00 +29°C° 1.5 mm 4 m/s 761 mmHg 93%
12:00 +30°C° 1.5 mm 4 m/s 760 mmHg 92%
13:00 +30°C° 1.5 mm 4 m/s 760 mmHg 91%
14:00 +30°C° 1.5 mm 5 m/s 759 mmHg 89%
15:00 +30°C° 1.5 mm 5 m/s 759 mmHg 88%
16:00 +29°C° 1.4 mm 5 m/s 759 mmHg 90%
17:00 +28°C° 1.4 mm 5 m/s 759 mmHg 92%
18:00 +27°C° 1.4 mm 5 m/s 759 mmHg 95%
19:00 +27°C° 1.4 mm 6 m/s 760 mmHg 96%
20:00 +27°C° 1.4 mm 6 m/s 760 mmHg 97%
21:00 +26°C° 1.4 mm 7 m/s 760 mmHg 98%
22:00 +26°C° 3.1 mm 7 m/s 760 mmHg 99%
23:00 +26°C° 3.1 mm 7 m/s 760 mmHg 99%

9 Août, Dimanche

Heure Température Précipitation Vent Pression Humidité
00:00 +26°C° 3.1 mm 7 m/s 760 mmHg 99%
01:00 +26°C° 5.6 mm 6 m/s 759 mmHg 99%
02:00 +26°C° 5.6 mm 5 m/s 759 mmHg 99%
03:00 +26°C° 5.6 mm 3 m/s 758 mmHg 99%
04:00 +26°C° 1.3 mm 4 m/s 759 mmHg 99%
05:00 +26°C° 1.3 mm 4 m/s 759 mmHg 99%
06:00 +26°C° 1.3 mm 5 m/s 759 mmHg 99%
07:00 +27°C° 2.4 mm 5 m/s 760 mmHg 98%
08:00 +27°C° 2.4 mm 5 m/s 760 mmHg 98%
09:00 +28°C° 2.4 mm 6 m/s 760 mmHg 97%
10:00 +29°C° 1.5 mm 6 m/s 760 mmHg 96%
11:00 +29°C° 1.5 mm 6 m/s 760 mmHg 95%
12:00 +30°C° 1.5 mm 6 m/s 760 mmHg 95%
13:00 +29°C° 1.7 mm 6 m/s 759 mmHg 95%
14:00 +29°C° 1.7 mm 6 m/s 758 mmHg 95%
15:00 +29°C° 1.7 mm 6 m/s 758 mmHg 95%
16:00 +28°C° 0.9 mm 6 m/s 758 mmHg 96%
17:00 +28°C° 0.9 mm 7 m/s 758 mmHg 96%
18:00 +27°C° 0.9 mm 7 m/s 758 mmHg 97%
19:00 +27°C° 1.9 mm 7 m/s 758 mmHg 98%
20:00 +27°C° 1.9 mm 7 m/s 759 mmHg 98%
21:00 +26°C° 1.9 mm 7 m/s 759 mmHg 99%
22:00 +26°C° 2 mm 7 m/s 759 mmHg 99%
23:00 +26°C° 2 mm 6 m/s 759 mmHg 99%
Voir plus